Regional Weather Roundup
Issued by NWS

Home | Current Version | Previous Version | Text Only | Print | Product List | Glossary Off
Versions: 1 2 3 4 5 6 7 8 9 10 11 12 13 14 15 16 17 18 19 20 21 22 23 24 25 26 27 28 29 30 31 32 33 34 35 36 37 38 39 40 41 42 43 44 45 46 47 48 49 50

000
ASUS45 KBOU 031010
RWRCO

WEATHER ROUNDUP FOR COLORADO
NATIONAL WEATHER SERVICE DENVER/BOULDER CO
400 AM MDT FRI JUL 03 2015

NOTE: "FAIR" INDICATES FEW OR NO CLOUDS BELOW 12000 FEET WITH NO
SIGNIFICANT WEATHER AND/OR OBSTRUCTIONS TO VISIBILITY.

COZ001>005-013-030-031-031100-
...NORTHWEST COLORADO...

CITY           SKY/WX    TMP DP  RH WIND       PRES   REMARKS
CRAIG          MOCLDY    62  46  55 SE6       30.19R
HAYDEN         MOCLDY    63  43  48 SE6       30.21R
MEEKER         MOCLDY    60  47  61 NE3       30.19R
MOUNT WERNER   NOT AVBL
STEAMBOAT SPGS PTCLDY    55  45  69 N5        30.23S
WALDEN         CLEAR     45  43  93 SE6       30.34F
$$

COZ006>008-011-031100-
...WEST CENTRAL VALLEYS...

CITY           SKY/WX    TMP DP  RH WIND       PRES   REMARKS
GRAND JUNCTION MOCLDY    76  48  37 E12       30.02S
MONTROSE       PTCLDY    68  49  50 CALM      30.14R
EAGLE          MOCLDY    61  46  59 NW7       30.24F
RIFLE          PTCLDY    65  43  44 SW3       30.10S
DELTA          MOCLDY    70  51  51 N6        30.09R
NUCLA          PTCLDY    66  46  48 SE6       30.19S
$$

COZ017>023-064>068-031100-
...SOUTHWEST COLORADO...

CITY           SKY/WX    TMP DP  RH WIND       PRES   REMARKS
DURANGO        MOCLDY    55  50  83 CALM      30.25F
CORTEZ         CLEAR     62  53  72 CALM      30.16F
PAGOSA SPRINGS MOCLDY    53  52  96 CALM      30.34S
TELLURIDE      MOCLDY    58  46  66 CALM      30.41F
WOLF CREEK PAS NOT AVBL
$$

COZ009-010-012-014-032>034-037-058>063-031100-
...CENTRAL COLORADO...

CITY           SKY/WX    TMP DP  RH WIND       PRES   REMARKS
ASPEN          MOCLDY    54  43  66 S5        30.27F
BUENA VISTA    CLEAR     49  46  90 CALM      30.36F
COPPER MTN     PTCLDY    52  36  54 S14G21    30.60S
BERTHOUD PASS  CLOUDY    43  32  65 NE7G21    30.65R
COTTONWOOD PAS NOT AVBL
GUNNISON       CLEAR     52  45  76 N5        30.35F
KREMMLING      LGT RAIN  54  45  71 S6        30.31F
LEADVILLE      PTCLDY    41  41 100 E5        30.45F
SALIDA         NOT AVBL
SUNLIGHT       CLOUDY    59  37  44 CALM      30.53F
WILKERSON PASS PTCLDY    45  43  93 W6        30.57F
$$

COZ069>075-031100-
...SAN LUIS VALLEY/SANGRE DE CRISTO MOUNTAINS...

CITY           SKY/WX    TMP DP  RH WIND       PRES   REMARKS
ALAMOSA        PTCLDY    49  47  93 CALM      30.32F
LA VETA PASS   FOG       48  46  93 MISG      30.48F VSB 1/4
SAGUACHE       PTCLDY    48  46  93 NW9       30.35F
$$

COZ035-036-038>040-031100-
...NORTHERN COLORADO FRONT RANGE...

CITY           SKY/WX    TMP DP  RH WIND       PRES   REMARKS
DENVER INTL AP PTCLDY    56  54  93 SE6       30.16F
DMNS CITY PARK   N/A     59  57  96 N2G10     30.17R
AURORA         PTCLDY    58  56  93 E5        30.18S
FRONT RANGE AP PTCLDY    59  55  88 MISG      30.18S
ERIE MUNI ARPT PTCLDY    59  57  96 CALM      30.15S
BOULDER MUN AP PTCLDY    59  59 100 CALM      30.16S
CENTENNIAL     PTCLDY    58  55  90 SW5       30.17F
BROOMFIELD     PTCLDY    61  55  82 N7        30.17F
FORT COLLINS   CLEAR     59  57  94 N6        30.17S
LONGMONT       CLEAR     60  57  91 CALM      30.17S
$$

COZ041-046-047-076>085-087-088-031100-
...PIKES PEAK/PALMER DIVIDE AND SOUTHERN FOOTHILLS...

CITY           SKY/WX    TMP DP  RH WIND       PRES   REMARKS
COLO. SPRINGS  PTCLDY    57  51  80 NW5       30.24S
A. F. ACADEMY  PTCLDY    53  52  97 N5        30.23F
ELLICOTT       CLEAR    N/A N/A N/A CALM      30.21F
FALCON         CLEAR     55  51  85 SW6       30.27F
FORT CARSON    CLEAR     60  54  82 S3        30.21S
LIMON          CLEAR     54  53  97 NW3       30.19S
MONUMENT HILL  NOT AVBL
TRINIDAD       CLOUDY    63  56  78 W6        30.21F
$$

COZ042>045-048>051-090-091-031100-
...NORTHEAST COLORADO...

CITY           SKY/WX    TMP DP  RH WIND       PRES   REMARKS
GREELEY ARPT   CLEAR     61  57  88 E3        30.14F
AKRON          MOCLDY    60  58  92 S9        30.14F
BURLINGTON     PTCLDY    61  58  90 W9        30.13S
WRAY           MOCLDY    61  58  90 W7        30.13R
STERLING       NOT AVBL
HOLYOKE        MOCLDY    61  55  82 W6        30.11S
FORT MORGAN      N/A     58  55  91 N3        30.15F
$$

COZ086-089-092>099-031100-
...SOUTHEAST COLORADO...

CITY           SKY/WX    TMP DP  RH WIND       PRES   REMARKS
PUEBLO         CLEAR     61  54  77 NW6       30.15F
LA JUNTA       PTCLDY    62  57  83 NW6       30.09S
LAMAR          MOCLDY    64  63  96 SE7       30.06R
SPRINGFIELD      N/A     63  62  97 NW6       30.12R
$$


USA.gov is the U.S. government's official web portal to all federal, state and local government web resources and services.